FW8529 Weather Reports


Display with metric or nautical units.
time (UTC)temp
F
wind
direction
speed
MPH
gust
MPH
rain 1hr
in
rain 24hr
in
rain mn
in
humidity
%
barometer
mb
20260510182521 89 293 1.0 8.0 0.00 0.05 0.00 73 1017.1
20260510182021 89 290 3.0 8.0 0.00 0.05 0.00 72 1017.1
20260510181600 90 319 2.0 5.0 0.00 0.05 0.00 72 1017.3
20260510181021 90 282 2.0 6.0 0.00 0.05 0.00 71 1017.4
20260510180522 90 304 2.0 6.0 0.00 0.05 0.00 71 1017.4
20260510180058 90 271 2.0 8.0 0.00 0.05 0.00 71 1017.5
20260510175524 91 325 2.0 8.0 0.00 0.05 0.00 70 1017.4
20260510175021 91 207 2.0 8.0 0.00 0.05 0.00 71 1017.5
20260510174539 91 317 2.0 6.0 0.00 0.05 0.00 70 1017.5
20260510174023 92 319 2.0 6.0 0.00 0.05 0.00 70 1017.7
20260510173524 91 263 2.0 8.0 0.00 0.05 0.00 70 1017.6
20260510173037 92 237 1.0 10.0 0.00 0.05 0.00 70 1017.7
20260510172525 92 329 2.0 10.0 0.00 0.05 0.00 70 1017.7
20260510172021 92 332 2.0 5.0 0.00 0.05 0.00 70 1017.7
20260510171546 92 342 1.0 4.0 0.00 0.05 0.00 70 1017.8
20260510171024 91 309 2.0 4.0 0.00 0.05 0.00 71 1017.7
20260510170524 91 321 2.0 7.0 0.00 0.05 0.00 70 1017.8
20260510170038 91 326 1.0 7.0 0.00 0.05 0.00 71 1017.8
20260510165522 92 265 2.0 6.0 0.00 0.05 0.00 70 1017.8
20260510165024 92 321 2.0 5.0 0.00 0.05 0.00 69 1017.8
20260510164536 92 333 1.0 4.0 0.00 0.05 0.00 70 1017.8
20260510164021 92 300 2.0 4.0 0.00 0.05 0.00 69 1017.9
20260510163525 92 327 2.0 4.0 0.00 0.05 0.00 68 1017.8
20260510163037 92 309 1.0 4.0 0.00 0.05 0.00 68 1017.8
20260510162522 93 300 1.0 4.0 0.00 0.05 0.00 68 1017.7
20260510162022 93 281 2.0 5.0 0.00 0.05 0.00 68 1017.8
20260510161538 93 307 1.0 5.0 0.00 0.05 0.00 67 1017.9
20260510161027 92 228 1.0 5.0 0.00 0.05 0.00 67 1017.9
20260510160527 92 279 1.0 4.0 0.00 0.05 0.00 68 1017.8
20260510160039 92 209 1.0 4.0 0.00 0.05 0.00 67 1017.8
20260510155528 92 328 1.0 4.0 0.00 0.05 0.00 67 1017.9
20260510155024 91 316 1.0 4.0 0.00 0.05 0.00 65 1018.0
20260510154537 92 319 1.0 3.0 0.00 0.05 0.00 64 1018.0
20260510154025 92 298 1.0 3.0 0.00 0.05 0.00 63 1017.9
20260510153521 93 249 1.0 4.0 0.00 0.05 0.00 62 1017.8
20260510153037 93 16 1.0 4.0 0.00 0.05 0.00 63 1017.8
20260510152521 93 0 1.0 7.0 0.00 0.05 0.00 61 1017.8
20260510152024 93 0 1.0 7.0 0.00 0.05 0.00 63 1017.7
20260510151541 92 298 0.0 6.0 0.00 0.05 0.00 62 1017.7
20260510151021 92 233 1.0 6.0 0.00 0.05 0.00 62 1017.8
20260510150524 92 229 1.0 8.0 0.00 0.05 0.00 64 1017.7
20260510150047 91 284 0.0 8.0 0.00 0.05 0.00 65 1017.7
20260510145522 91 160 2.0 8.0 0.00 0.05 0.00 65 1017.7
20260510145021 91 231 2.0 5.0 0.00 0.05 0.00 66 1017.6
20260510144537 91 242 1.0 5.0 0.00 0.05 0.00 66 1017.6
20260510144021 90 0 1.0 5.0 0.00 0.05 0.00 67 1017.5
20260510143521 90 196 0.0 5.0 0.00 0.05 0.00 69 1017.7
20260510143039 89 190 1.0 5.0 0.00 0.05 0.00 69 1017.8
20260510142524 89 0 1.0 4.0 0.00 0.05 0.00 72 1017.6
20260510142024 88 138 0.0 5.0 0.00 0.05 0.00 73 1017.5
20260510141537 87 178 1.0 5.0 0.00 0.05 0.00 73 1017.5
20260510141022 87 0 1.0 4.0 0.00 0.05 0.00 74 1017.5
20260510140522 86 281 1.0 4.0 0.00 0.05 0.00 76 1017.5
20260510140038 85 38 1.0 5.0 0.00 0.05 0.00 76 1017.4
20260510135521 85 0 1.0 5.0 0.00 0.05 0.00 78 1017.4
20260510135024 84 250 0.0 3.0 0.00 0.05 0.00 79 1017.3
20260510134537 84 0 0.0 5.0 0.00 0.05 0.00 78 1017.3
20260510134021 84 0 0.0 5.0 0.00 0.05 0.00 78 1017.3
20260510133521 83 0 0.0 7.0 0.00 0.05 0.00 79 1017.4
20260510133045 83 0 1.0 7.0 0.00 0.05 0.00 80 1017.4
20260510132521 82 194 1.0 7.0 0.00 0.05 0.00 81 1017.4
20260510132021 81 0 2.0 7.0 0.00 0.05 0.00 82 1017.3
20260510131541 81 0 0.0 3.0 0.00 0.05 0.00 84 1017.2
20260510131021 80 129 1.0 3.0 0.00 0.05 0.00 85 1017.2
20260510130530 79 202 0.0 3.0 0.00 0.05 0.00 86 1017.2
20260510130038 79 194 0.0 3.0 0.00 0.05 0.00 87 1017.2
20260510125524 78 136 1.0 3.0 0.00 0.05 0.00 88 1017.2
20260510125022 77 140 0.0 4.0 0.00 0.05 0.00 89 1017.1
20260510124538 77 0 0.0 4.0 0.00 0.05 0.00 90 1017.1
20260510124023 76 181 0.0 4.0 0.00 0.05 0.00 91 1017.1
20260510123522 76 151 0.0 4.0 0.00 0.05 0.00 91 1017.0
20260510123037 76 0 0.0 3.0 0.00 0.05 0.00 93 1017.0
20260510122521 75 0 1.0 3.0 0.00 0.05 0.00 93 1017.0
20260510122021 75 120 0.0 2.0 0.00 0.05 0.00 94 1017.0
20260510121537 74 0 0.0 3.0 0.00 0.05 0.00 94 1016.8
20260510121021 74 0 0.0 3.0 0.00 0.05 0.00 94 1016.9
20260510120527 74 0 0.0 3.0 0.00 0.05 0.00 94 1016.6
20260510120037 73 0 0.0 2.0 0.00 0.05 0.00 94 1016.5
20260510115524 73 0 0.0 3.0 0.00 0.05 0.00 95 1016.6
20260510115025 73 164 0.0 5.0 0.00 0.05 0.00 95 1016.6
20260510114547 73 120 0.0 5.0 0.00 0.05 0.00 95 1016.5
20260510114021 73 139 0.0 5.0 0.00 0.05 0.00 95 1016.4
20260510113520 73 0 0.0 2.0 0.00 0.05 0.00 95 1016.5
20260510113038 72 0 0.0 2.0 0.00 0.05 0.00 95 1016.4
20260510112527 72 0 0.0 2.0 0.00 0.05 0.00 94 1016.3
20260510112025 72 121 0.0 3.0 0.00 0.05 0.00 94 1016.3
20260510111539 72 0 0.0 3.0 0.00 0.05 0.00 94 1016.1
20260510111023 72 0 0.0 3.0 0.00 0.05 0.00 94 1016.0
20260510110524 72 0 0.0 1.0 0.00 0.05 0.00 94 1016.0
20260510110042 72 0 0.0 2.0 0.00 0.05 0.00 94 1015.8
20260510105524 72 0 0.0 2.0 0.00 0.05 0.00 94 1015.7
20260510105021 72 0 0.0 2.0 0.00 0.05 0.00 94 1015.6
20260510104537 72 0 0.0 1.0 0.00 0.05 0.00 94 1015.7
20260510104028 72 0 0.0 1.0 0.00 0.05 0.00 94 1015.5
20260510103521 72 0 0.0 1.0 0.00 0.05 0.00 93 1015.6
20260510103038 72 0 0.0 1.0 0.00 0.05 0.00 93 1015.6
20260510102521 72 0 0.0 0.0 0.00 0.05 0.00 93 1015.6
20260510102027 72 0 0.0 0.0 0.00 0.05 0.00 93 1015.5
20260510101538 72 0 0.0 0.0 0.00 0.05 0.00 93 1015.5
20260510101021 72 0 0.0 0.0 0.00 0.05 0.00 93 1015.4
20260510100521 72 0 0.0 2.0 0.00 0.05 0.00 93 1015.3
20260510100044 72 0 0.0 2.0 0.00 0.05 0.00 93 1015.0
20260510095524 72 0 0.0 2.0 0.00 0.05 0.00 92 1015.0
20260510095024 72 0 0.0 0.0 0.00 0.05 0.00 92 1015.1
20260510094546 72 0 0.0 0.0 0.00 0.05 0.00 92 1015.1
20260510094024 72 0 0.0 0.0 0.00 0.05 0.00 92 1015.2
20260510093520 73 0 0.0 0.0 0.00 0.05 0.00 92 1015.0
20260510093037 73 0 0.0 0.0 0.00 0.05 0.00 92 1015.0
20260510092524 73 0 0.0 0.0 0.00 0.05 0.00 92 1014.9
20260510092026 73 0 0.0 0.0 0.00 0.05 0.00 92 1014.7
20260510091541 73 0 0.0 0.0 0.00 0.05 0.00 91 1014.7
20260510091024 73 0 0.0 0.0 0.00 0.05 0.00 91 1014.6
20260510090524 73 0 0.0 0.0 0.00 0.05 0.00 92 1014.7
20260510090036 73 0 0.0 0.0 0.00 0.05 0.00 92 1014.5
20260510085521 73 0 0.0 0.0 0.00 0.05 0.00 92 1014.5
20260510085021 73 0 0.0 0.0 0.00 0.05 0.00 91 1014.4
20260510084539 73 0 0.0 0.0 0.00 0.05 0.00 91 1014.5
20260510084021 74 0 0.0 1.0 0.00 0.05 0.00 91 1014.4
20260510083521 74 0 0.0 2.0 0.00 0.05 0.00 91 1014.4
20260510083051 74 0 0.0 2.0 0.00 0.05 0.00 91 1014.3
20260510082520 74 0 0.0 1.0 0.00 0.05 0.00 91 1014.4
20260510082022 74 0 0.0 0.0 0.00 0.05 0.00 91 1014.3
20260510081541 74 0 0.0 0.0 0.00 0.05 0.00 91 1014.2
20260510081021 74 0 0.0 1.0 0.00 0.05 0.00 91 1014.2
20260510080526 74 0 0.0 2.0 0.00 0.05 0.00 91 1014.2
20260510080038 74 0 0.0 2.0 0.00 0.05 0.00 91 1014.2
20260510075526 74 0 0.0 2.0 0.00 0.05 0.00 91 1014.2
20260510075026 74 0 0.0 3.0 0.00 0.05 0.00 92 1014.2
20260510074537 74 0 0.0 5.0 0.00 0.05 0.00 92 1014.2
20260510074024 74 128 1.0 5.0 0.00 0.05 0.00 92 1014.3
20260510073524 74 0 1.0 5.0 0.00 0.05 0.00 92 1014.4
20260510073050 74 142 0.0 3.0 0.00 0.05 0.00 92 1014.5
20260510072524 74 0 0.0 5.0 0.00 0.05 0.00 92 1014.6
20260510072021 74 115 1.0 5.0 0.00 0.05 0.00 92 1014.6
20260510071540 74 95 1.0 5.0 0.00 0.05 0.00 92 1014.6
20260510071020 74 117 1.0 4.0 0.00 0.05 0.00 93 1014.6
20260510070521 74 0 0.0 4.0 0.00 0.05 0.00 93 1014.8
20260510070040 74 129 0.0 2.0 0.00 0.05 0.00 93 1014.9
20260510065522 74 0 0.0 3.0 0.00 0.05 0.00 93 1014.9
20260510065027 74 0 0.0 3.0 0.00 0.05 0.00 93 1014.9
20260510064540 74 123 1.0 3.0 0.00 0.05 0.00 93 1015.0
20260510064022 74 137 0.0 1.0 0.00 0.05 0.00 93 1015.0
20260510063522 74 0 0.0 0.0 0.00 0.05 0.00 93 1015.2
20260510063038 75 0 0.0 0.0 0.00 0.05 0.00 93 1015.1
20260510062522 75 0 0.0 0.0 0.00 0.05 0.00 93 1015.2
20260510062022 75 0 0.0 1.0 0.00 0.05 0.00 93 1015.2
20260510061537 75 0 0.0 2.0 0.00 0.05 0.00 93 1015.2
20260510061022 75 0 0.0 2.0 0.00 0.05 0.00 93 1015.2
20260510060525 75 139 0.0 2.0 0.00 0.05 0.00 93 1015.3
20260510060042 75 0 0.0 1.0 0.00 0.05 0.00 93 1015.4
20260510055522 75 0 0.0 2.0 0.00 0.05 0.00 93 1015.4
20260510055023 75 0 0.0 2.0 0.00 0.05 0.00 93 1015.6
20260510054541 75 0 0.0 2.0 0.00 0.05 0.00 93 1015.6
20260510054025 75 0 0.0 0.0 0.00 0.05 0.00 94 1015.7
20260510053521 75 0 0.0 2.0 0.00 0.05 0.00 94 1015.8
20260510053038 75 0 0.0 3.0 0.00 0.05 0.00 94 1015.9
20260510052522 75 141 0.0 3.0 0.00 0.05 0.00 93 1015.9
20260510052024 76 281 0.0 1.0 0.00 0.05 0.00 94 1015.9
20260510051539 76 0 0.0 1.0 0.00 0.05 0.00 94 1016.0
20260510051023 76 0 0.0 0.0 0.00 0.05 0.00 94 1016.0
20260510050522 76 0 0.0 1.0 0.00 0.05 0.00 94 1016.0
20260510050039 76 0 0.0 1.0 0.00 0.05 0.00 93 1016.0
20260510045526 76 0 0.0 1.0 0.00 0.05 0.00 93 1016.0
20260510045023 76 0 0.0 2.0 0.00 0.05 0.00 93 1015.9
20260510044536 76 0 0.0 2.0 0.00 0.05 0.00 94 1015.9
20260510044022 76 0 0.0 1.0 0.00 0.05 0.00 93 1016.0
20260510043522 76 0 0.0 1.0 0.00 0.05 0.00 93 1016.1
20260510043035 76 0 0.0 1.0 0.00 0.05 0.00 93 1016.1
20260510042523 76 0 0.0 0.0 0.00 0.05 0.00 93 1016.2
20260510042023 76 0 0.0 0.0 0.00 0.05 0.00 92 1016.3
20260510041543 76 0 0.0 0.0 0.00 0.05 0.00 92 1016.3
20260510041022 76 0 0.0 0.0 0.00 0.05 0.00 92 1016.4
20260510040523 76 0 0.0 0.0 0.00 0.05 0.00 92 1016.3
20260510040039 76 0 0.0 0.0 0.00 0.05 0.00 92 1016.3
20260510035523 76 0 0.0 0.0 0.00 0.05 0.05 92 1016.2
20260510035022 76 0 0.0 0.0 0.00 0.05 0.05 91 1016.3
20260510034538 76 0 0.0 0.0 0.00 0.05 0.05 91 1016.2
20260510034022 76 0 0.0 0.0 0.00 0.05 0.05 91 1016.1
20260510033526 76 0 0.0 0.0 0.00 0.05 0.05 91 1016.0
20260510033038 77 0 0.0 0.0 0.00 0.05 0.05 91 1015.9
20260510032523 77 0 0.0 0.0 0.00 0.05 0.05 91 1015.8
20260510032024 77 0 0.0 0.0 0.03 0.05 0.05 91 1015.8
20260510031537 77 0 0.0 0.0 0.05 0.05 0.05 91 1015.8
20260510031022 77 0 0.0 0.0 0.05 0.05 0.05 91 1016.0
20260510030522 77 0 0.0 0.0 0.05 0.05 0.05 90 1015.9
20260510030044 77 0 0.0 0.0 0.05 0.05 0.05 90 1015.9
20260510025522 77 0 0.0 0.0 0.05 0.05 0.05 90 1015.9
20260510025022 77 0 0.0 0.0 0.05 0.05 0.05 89 1015.8
20260510024535 78 0 0.0 0.0 0.05 0.05 0.05 89 1015.9
20260510024023 78 0 0.0 0.0 0.05 0.05 0.05 89 1015.7
20260510023522 78 0 0.0 1.0 0.05 0.05 0.05 88 1015.8
20260510023037 78 0 0.0 1.0 0.05 0.05 0.05 88 1015.8
20260510022522 78 0 0.0 1.0 0.05 0.05 0.05 87 1015.8
20260510022021 78 0 0.0 1.0 0.00 0.00 0.00 86 1015.8
20260510021537 78 0 0.0 0.0 0.00 0.00 0.00 85 1015.8
20260510021022 78 0 0.0 0.0 0.00 0.00 0.00 84 1015.8
20260510020524 78 0 0.0 0.0 0.00 0.00 0.00 84 1015.8
20260510020037 78 0 0.0 0.0 0.00 0.00 0.00 83 1015.7
20260510015522 78 0 0.0 0.0 0.00 0.00 0.00 83 1015.5
20260510015023 78 0 0.0 0.0 0.00 0.00 0.00 83 1015.5
20260510014536 78 0 0.0 0.0 0.00 0.00 0.00 83 1015.4
20260510014022 78 0 0.0 0.0 0.00 0.00 0.00 83 1015.4
20260510013522 78 0 0.0 0.0 0.00 0.00 0.00 82 1015.3
20260510013040 79 0 0.0 0.0 0.00 0.00 0.00 82 1015.2
20260510012522 79 0 0.0 1.0 0.00 0.00 0.00 82 1015.2
20260510012022 79 0 0.0 1.0 0.00 0.00 0.00 82 1015.2
20260510011545 79 0 0.0 0.0 0.00 0.00 0.00 82 1015.0
20260510011023 79 0 0.0 0.0 0.00 0.00 0.00 82 1015.1
20260510010522 79 0 0.0 0.0 0.00 0.00 0.00 81 1015.0
20260510010038 79 0 0.0 0.0 0.00 0.00 0.00 81 1015.1
20260510005522 79 0 0.0 0.0 0.00 0.00 0.00 81 1014.8
20260510005021 80 0 0.0 0.0 0.00 0.00 0.00 81 1014.8
20260510004537 80 0 0.0 1.0 0.00 0.00 0.00 81 1014.8
20260510004022 80 0 0.0 1.0 0.00 0.00 0.00 81 1014.9
20260510003522 80 0 0.0 1.0 0.00 0.00 0.00 80 1014.9
20260510003041 80 0 0.0 1.0 0.00 0.00 0.00 80 1014.7
20260510002523 80 0 0.0 1.0 0.00 0.00 0.00 80 1014.5
20260510002022 80 0 0.0 1.0 0.00 0.00 0.00 79 1014.5
20260510001537 80 0 0.0 2.0 0.00 0.00 0.00 79 1014.4
20260510001022 80 0 0.0 2.0 0.00 0.00 0.00 79 1014.4
20260510000521 80 302 0.0 2.0 0.00 0.00 0.00 79 1014.5
20260510000045 81 0 0.0 2.0 0.00 0.00 0.00 78 1014.5
20260509235522 81 0 0.0 2.0 0.00 0.00 0.00 77 1014.5
20260509235022 81 0 0.0 3.0 0.00 0.00 0.00 77 1014.2
20260509234542 81 0 1.0 3.0 0.00 0.00 0.00 77 1014.2
20260509234023 81 0 0.0 3.0 0.00 0.00 0.00 76 1014.2
20260509233521 81 0 1.0 3.0 0.00 0.00 0.00 76 1014.3
20260509233038 82 315 1.0 3.0 0.00 0.00 0.00 76 1014.2
20260509232523 82 322 1.0 3.0 0.00 0.00 0.00 75 1014.1
20260509232023 82 318 1.0 3.0 0.00 0.00 0.00 75 1014.2
20260509231542 82 322 0.0 3.0 0.00 0.00 0.00 74 1014.2
20260509231022 83 323 1.0 3.0 0.00 0.00 0.00 74 1014.1
20260509230522 83 325 1.0 4.0 0.00 0.00 0.00 74 1014.0
20260509230037 83 318 1.0 4.0 0.00 0.00 0.00 73 1014.0
20260509225523 83 318 1.0 4.0 0.00 0.00 0.00 72 1014.0
20260509225022 84 235 1.0 4.0 0.00 0.00 0.00 71 1014.0
20260509224536 84 319 1.0 4.0 0.00 0.00 0.00 71 1014.1
20260509224022 84 335 1.0 3.0 0.00 0.00 0.00 70 1013.9
20260509223522 84 321 1.0 4.0 0.00 0.00 0.00 69 1013.8
20260509223039 85 327 1.0 4.0 0.00 0.00 0.00 69 1013.9
20260509222522 85 346 1.0 5.0 0.00 0.00 0.00 69 1013.8
20260509222022 85 329 1.0 6.0 0.00 0.00 0.00 68 1013.7
20260509221542 85 307 1.0 7.0 0.00 0.00 0.00 67 1013.7
20260509221022 85 321 1.0 7.0 0.00 0.00 0.00 65 1013.5
20260509220523 86 279 1.0 3.0 0.00 0.00 0.00 65 1013.6
20260509220040 86 310 1.0 4.0 0.00 0.00 0.00 64 1013.5
20260509215522 86 338 1.0 5.0 0.00 0.00 0.00 64 1013.6
20260509215021 86 284 1.0 5.0 0.00 0.00 0.00 63 1013.4
20260509214537 87 254 1.0 5.0 0.00 0.00 0.00 64 1013.4
20260509214021 87 274 1.0 5.0 0.00 0.00 0.00 64 1013.4
20260509213522 87 248 1.0 5.0 0.00 0.00 0.00 62 1013.3
20260509213038 88 221 2.0 5.0 0.00 0.00 0.00 60 1013.4
20260509212522 89 311 1.0 7.0 0.00 0.00 0.00 59 1013.4
20260509212022 89 281 2.0 7.0 0.00 0.00 0.00 57 1013.3
20260509211537 90 315 0.0 10.0 0.00 0.00 0.00 55 1013.3
20260509211022 90 319 1.0 10.0 0.00 0.00 0.00 53 1013.2
20260509210525 91 280 2.0 8.0 0.00 0.00 0.00 53 1013.2
20260509210044 91 327 2.0 9.0 0.00 0.00 0.00 52 1013.0
20260509205522 92 259 2.0 9.0 0.00 0.00 0.00 50 1013.0
20260509205023 92 323 2.0 9.0 0.00 0.00 0.00 51 1013.1
20260509204542 92 159 1.0 8.0 0.00 0.00 0.00 52 1012.9
20260509204026 92 232 2.0 10.0 0.00 0.00 0.00 50 1012.9
20260509203521 93 315 2.0 10.0 0.00 0.00 0.00 50 1013.0
20260509203041 93 224 1.0 8.0 0.00 0.00 0.00 50 1013.0
20260509202524 93 254 1.0 8.0 0.00 0.00 0.00 50 1012.9
20260509202022 93 254 2.0 8.0 0.00 0.00 0.00 49 1012.9
20260509201537 93 300 1.0 8.0 0.00 0.00 0.00 52 1012.9
20260509201025 93 271 2.0 7.0 0.00 0.00 0.00 50 1013.0
20260509200522 93 325 2.0 6.0 0.00 0.00 0.00 53 1013.0
20260509200037 93 319 1.0 6.0 0.00 0.00 0.00 54 1013.0
20260509195521 92 192 1.0 9.0 0.00 0.00 0.00 53 1013.1
20260509195022 92 0 1.0 9.0 0.00 0.00 0.00 55 1013.0
20260509194537 92 311 2.0 9.0 0.00 0.00 0.00 54 1013.1
20260509194022 93 251 2.0 9.0 0.00 0.00 0.00 54 1013.1
20260509193525 93 248 2.0 5.0 0.00 0.00 0.00 53 1013.2
20260509193041 93 228 2.0 8.0 0.00 0.00 0.00 53 1013.2
20260509192523 93 249 2.0 8.0 0.00 0.00 0.00 53 1013.3
20260509192026 92 219 2.0 8.0 0.00 0.00 0.00 53 1013.4
20260509191541 92 301 2.0 8.0 0.00 0.00 0.00 53 1013.4
20260509191029 92 260 2.0 7.0 0.00 0.00 0.00 53 1013.5
20260509190522 92 234 1.0 7.0 0.00 0.00 0.00 53 1013.5
20260509190038 92 290 2.0 7.0 0.00 0.00 0.00 53 1013.6
20260509185523 92 243 2.0 7.0 0.00 0.00 0.00 53 1013.6
20260509185023 92 250 2.0 5.0 0.00 0.00 0.00 53 1013.8
20260509184550 93 220 1.0 7.0 0.00 0.00 0.00 52 1013.8
20260509184026 93 279 1.0 7.0 0.00 0.00 0.00 54 1014.0
20260509183523 93 309 2.0 7.0 0.00 0.00 0.00 52 1014.0
20260509183038 94 281 2.0 7.0 0.00 0.00 0.00 52 1014.0